GPS BIIRM-8 (PRN 05)

Last updated on Sun Nov 09 2025 00:03:18 GMT+0000 (Coordinated Universal Time)

1 35752U 09043A 25312.43272707 -.00000075 00000+0 00000+0 0 9994 2 35752 56.0681 36.1360 0052851 82.2629 51.5770 2.00567614118937
UTC large
Height (km)
Speed (km/s)
/
Latitude / Longitude
Inclination (degrees)
Orbital Period (minutes)
Azimuth
Elevation
Range (km)
Doppler Factor

Next 0 passes for location: London (51.5072 / 0.1276)

Sorry there are no passes over London.